{"data":{"norad_id":57645,"epoch":"2026-05-24T17:04:24.821760Z","epoch_age_seconds":96605,"freshness":"FRESH","line1":"1 57645U 23122P   26144.71139840 -.00000090  00000+0  62721-5 0  9999","line2":"2 57645  43.0038 241.0690 0001425 265.6093  94.4595 15.27575243155505","mean_motion":15.27575243,"eccentricity":0.0001425,"inclination_deg":43.0038,"raan_deg":241.069,"arg_perigee_deg":265.6093,"mean_anomaly_deg":94.4595,"bstar":6.2721e-6,"rev_number":15550,"period_min":94.267042268372,"perigee_km":482.08561919745,"apogee_km":484.04106129442,"semimajor_km":6861.2003402459,"source":"CELESTRAK","updated_at":"2026-05-25T13:38:18.364895Z"}}